Flag for Turkey

Past Weather in 41°00'07.4"N, 29°10'02.6"E, Turkey — Yesterday and Last 2 Weeks

Now
77 °F

Passing clouds.


Feels Like: 79 °F
Forecast: 84 / 67 °F
Wind: 7 mph from Southwest

Location: Istanbul Ataturk Airport
Current Time: Sep 25, 2020 at 2:30:18 pm
Latest Report: Sep 25, 2020 at 1:50 pm
Visibility: N/A
Pressure29.86 "Hg
Humidity: 69%
Dew Point: 66 °F
Location of 41°00'07.4"N, 29°10'02.6"ELocation

Past Weather in 41°00'07.4"N, 29°10'02.6"E — Graph

°F

41°00'07.4"N, 29°10'02.6"E Temperature Yesterday

Maximum temperature yesterday: 81 °F (at 2:20 pm)
Minimum temperature yesterday: 64 °F (at 5:50 am)
Average temperature yesterday: 73 °F

High & Low Weather Summary for the Past Weeks

 TemperatureHumidityPressure
High84 °F (Sep 10, 3:20 pm)94% (Sep 18, 5:20 am)30.15 "Hg (Sep 18, 5:20 am)
Low64 °F (Sep 23, 3:50 am)35% (Sep 15, 2:20 pm)29.86 "Hg (Sep 24, 4:50 pm)
Average75 °F68%30.01 "Hg
* Reported Sep 10 1:20 pm — Sep 25 1:20 pm, 41°00'07.4"N, 29°10'02.6"E. Weather by CustomWeather, © 2020

Note: Actual official high and low records may vary slightly from our data, if they occured in-between our weather recording intervals... More about our weather records

41°00'07.4"N, 29°10'02.6"E Weather History for the Previous 24 Hours

Scroll right to see more
 ConditionsComfort  
Time TempWeatherWind HumidityBarometerVisibility
1:20 pm
Fri, Sep 25
77 °FPassing clouds.8 mph74%29.86 "HgN/A
12:50 pm77 °FSunny.7 mph69%29.86 "Hg10 mi
12:20 pm75 °FPassing clouds.7 mph78%29.86 "HgN/A
11:50 am79 °FPassing clouds.5 mph70%29.86 "HgN/A
11:20 am77 °FSunny.7 mph74%29.86 "Hg10 mi
10:50 am75 °FPassing clouds.6 mph78%29.89 "HgN/A
10:20 am75 °FSunny.6 mph78%29.89 "Hg10 mi
9:50 am73 °FSunny.7 mph78%29.89 "Hg10 mi
9:20 am73 °FSunny.7 mph83%29.86 "Hg10 mi
8:50 am73 °FPassing clouds.6 mph83%29.86 "HgN/A
8:20 am72 °FSunny.5 mph83%29.86 "Hg10 mi
7:50 am72 °FPassing clouds.3 mph83%29.86 "HgN/A
7:20 am72 °FSunny.3 mph83%29.86 "Hg10 mi
6:50 am72 °FClear.3 mph88%29.86 "Hg10 mi
6:20 am72 °FClear.2 mph83%29.86 "Hg10 mi
5:50 am72 °FPassing clouds.5 mph83%29.86 "HgN/A
5:20 am72 °FClear.3 mph88%29.86 "Hg10 mi
4:50 am72 °FClear.2 mph88%29.86 "Hg10 mi
3:50 am72 °FClear.3 mph88%29.86 "Hg10 mi
3:20 am72 °FClear.3 mph88%29.86 "Hg10 mi
2:50 am72 °FClear.3 mph78%29.86 "Hg10 mi
2:20 am72 °FClear.1 mph78%29.89 "Hg10 mi
1:50 am72 °FClear.3 mph78%29.89 "Hg10 mi
1:20 am72 °FClear.1 mph73%29.89 "Hg10 mi
12:50 am73 °FClear.2 mph65%29.89 "Hg10 mi
12:20 am73 °FClear.2 mph53%29.89 "Hg10 mi
11:50 pm
Thu, Sep 24
72 °FClear.2 mph57%29.89 "Hg10 mi
11:20 pm73 °FClear.2 mph50%29.89 "Hg10 mi
10:50 pm73 °FClear.2 mph53%29.89 "Hg10 mi
10:20 pm73 °FClear.2 mph53%29.89 "Hg10 mi
9:50 pm73 °FClear.3 mph53%29.89 "Hg10 mi
9:20 pm73 °FPassing clouds.3 mph61%29.89 "HgN/A
8:50 pm73 °FClear.6 mph61%29.89 "Hg10 mi
8:20 pm75 °FClear.1 mph54%29.89 "Hg10 mi
7:50 pm75 °FClear.1 mph50%29.89 "Hg10 mi
7:20 pm75 °FClear.No wind54%29.86 "Hg10 mi
6:50 pm75 °FSunny.1 mph57%29.86 "Hg10 mi
6:20 pm75 °FSunny.3 mph61%29.86 "Hg10 mi
5:50 pm77 °FSunny.2 mph51%29.86 "Hg10 mi
5:20 pm79 °FSunny.2 mph51%29.86 "Hg10 mi
4:50 pm79 °FPassing clouds.5 mph45%29.86 "HgN/A
4:20 pm79 °FPassing clouds.5 mph51%29.89 "HgN/A
3:50 pm79 °FSunny.7 mph54%29.89 "Hg10 mi
3:20 pm81 °FPassing clouds.6 mph48%29.89 "HgN/A
2:50 pm81 °FPassing clouds.7 mph42%29.89 "HgN/A
2:20 pm81 °FPassing clouds.5 mph42%29.89 "HgN/A
Weather by CustomWeather, © 2020

See weather overview